Simultaneous Nadir Overpasses (SNOs) Predictions

Prediction of SNOs between LANDSAT-8 and NOAA-19 Satellite Orbit:

Table of predicted SNOs for the next 14.0 days since TLE Epoch: 12/28/2024
Index Date (LANDSAT-8) Time (LANDSAT-8) Lat,Lon (LANDSAT-8) SZA (LANDSAT-8 ) Date (NOAA-19) Time (NOAA-19) Lat,Lon (NOAA-19) SZA (NOAA-19 ) Distance(km) Time Diff (sec)
1 12/29/2024 06:42:38 -80.00, -73.13 75.84 12/29/2024 06:41:36 -80.00, -73.13 75.86 0.15 62
2 12/29/2024 07:32:01 80.10, 95.40 104.32 12/29/2024 07:32:31 80.10, 95.35 104.33 0.97 30
3 12/31/2024 13:55:11 80.06, -0.78 104.07 12/31/2024 13:54:56 80.06, -0.70 104.08 1.54 15
4 12/31/2024 14:43:45 -81.46,-174.96 73.15 12/31/2024 14:44:58 -80.97,-173.84 73.36 57.93 73
5 01/02/2025 20:18:21 79.99, -97.15 103.75 01/02/2025 20:17:22 79.98, -97.15 103.73 0.37 59
6 01/02/2025 21:07:45 -80.09, 71.38 76.10 01/02/2025 21:08:17 -80.09, 71.46 76.08 1.41 32
7 01/05/2025 03:30:55 -80.00, -25.18 76.50 01/05/2025 03:30:44 -80.00, -25.20 76.50 0.52 11
8 01/07/2025 09:54:03 -79.95,-121.36 76.87 01/07/2025 09:53:09 -79.95,-121.33 76.88 0.68 54
9 01/07/2025 10:43:26 80.05, 47.09 103.28 01/07/2025 10:44:02 80.04, 46.97 103.28 2.39 36



Historial Predications of SNOs between LANDSAT-8 and NOAA-19
